User: anonymous   Login
Location: Hamburg
(53.5500°N, 10.0000°E)
Time: 04:43:25
(UTC+02:00)
Language:

Courier 1B - Orbit

View from above orbital plane
View from above orbital plane
View from above satellite
View from above satellite

Ground track
Ground track

The orbit data is extracted from the following two-line orbital elements,

1 00058U 60013A   15142.18386217  .00000091  00000-0  47029-5 0  9999
2 00058 028.3266 136.5739 0164986 206.1156 153.0988 13.46293302689214
Epoch (UTC): 22 May 2015 04:24:45
Eccentricity: 0.0164986
inclination: 28.3266°
perigee height: 963 km
apogee height: 1209 km
right ascension of ascending node: 136.5739°
argument of perigee: 206.1156°
revolutions per day: 13.46293302
mean anomaly at epoch: 153.0988°
orbit number at epoch: 68921

The dashed part of the orbit path shows where the satellite is in the earth's shadow,  

DLR